| time (UTC) | temp F | wind direction | speed MPH | gust MPH | rain 1hr in | rain 24hr in | rain mn in | humidity % | barometer mb |
| 20260510182458 | 68 | 233 | 3.0 | 5.0 | 0.00 | 0.28 | 0.02 | 76 | 1013.3 |
| 20260510181958 | 68 | 293 | 0.0 | 5.0 | 0.00 | 0.28 | 0.02 | 78 | 1013.3 |
| 20260510181501 | 67 | 250 | 3.0 | 5.0 | 0.00 | 0.28 | 0.02 | 78 | 1013.3 |
| 20260510180458 | 66 | 250 | 3.0 | 8.0 | 0.00 | 0.28 | 0.02 | 79 | 1013.4 |
| 20260510175957 | 66 | 261 | 7.0 | 8.0 | 0.00 | 0.28 | 0.02 | 81 | 1013.6 |
| 20260510175501 | 65 | 215 | 2.0 | 3.0 | 0.00 | 0.28 | 0.02 | 84 | 1013.6 |
| 20260510174957 | 64 | 186 | 0.0 | 6.0 | 0.00 | 0.28 | 0.02 | 81 | 1013.6 |
| 20260510172457 | 64 | 151 | 0.0 | 7.0 | 0.00 | 0.28 | 0.02 | 83 | 1013.3 |
| 20260510171957 | 64 | 250 | 4.0 | 8.0 | 0.00 | 0.28 | 0.02 | 83 | 1013.4 |
| 20260510171458 | 65 | 252 | 3.0 | 4.0 | 0.00 | 0.28 | 0.02 | 85 | 1013.3 |
| 20260510171001 | 64 | 223 | 1.0 | 5.0 | 0.00 | 0.28 | 0.02 | 84 | 1013.3 |
| 20260510165958 | 64 | 244 | 2.0 | 8.0 | 0.00 | 0.28 | 0.02 | 85 | 1013.6 |
| 20260510165457 | 64 | 249 | 3.0 | 8.0 | 0.00 | 0.28 | 0.02 | 84 | 1013.6 |
| 20260510164458 | 62 | 241 | 4.0 | 6.0 | 0.00 | 0.28 | 0.02 | 88 | 1013.5 |
| 20260510163457 | 62 | 240 | 3.0 | 7.0 | 0.00 | 0.28 | 0.02 | 87 | 1013.6 |
| 20260510162958 | 62 | 257 | 1.0 | 6.0 | 0.00 | 0.28 | 0.02 | 86 | 1013.6 |
| 20260510162457 | 62 | 250 | 2.0 | 4.0 | 0.00 | 0.28 | 0.02 | 89 | 1013.6 |
| 20260510161957 | 61 | 198 | 1.0 | 6.0 | 0.00 | 0.28 | 0.02 | 88 | 1013.6 |
| 20260510161457 | 62 | 259 | 1.0 | 6.0 | 0.00 | 0.28 | 0.02 | 87 | 1013.7 |
| 20260510160958 | 61 | 264 | 0.0 | 4.0 | 0.00 | 0.28 | 0.02 | 91 | 1013.6 |
| 20260510155957 | 59 | 290 | 1.0 | 3.0 | 0.00 | 0.28 | 0.02 | 92 | 1013.6 |
| 20260510155501 | 59 | 245 | 1.0 | 2.0 | 0.00 | 0.28 | 0.02 | 91 | 1013.7 |
| 20260510154958 | 59 | 245 | 0.0 | 6.0 | 0.00 | 0.28 | 0.02 | 93 | 1013.8 |
| 20260510154458 | 58 | 244 | 1.0 | 6.0 | 0.00 | 0.28 | 0.02 | 93 | 1013.9 |
| 20260510153458 | 58 | 252 | 2.0 | 3.0 | 0.00 | 0.28 | 0.02 | 95 | 1014.0 |
| 20260510152458 | 56 | 263 | 2.0 | 4.0 | 0.00 | 0.28 | 0.02 | 95 | 1014.1 |
| 20260510151458 | 56 | 250 | 2.0 | 3.0 | 0.00 | 0.28 | 0.02 | 96 | 1014.2 |
| 20260510150958 | 55 | 250 | 2.0 | 3.0 | 0.00 | 0.28 | 0.02 | 96 | 1014.2 |
| 20260510150458 | 55 | 250 | 1.0 | 3.0 | 0.00 | 0.28 | 0.02 | 96 | 1014.2 |
| 20260510145959 | 53 | 250 | 2.0 | 4.0 | 0.01 | 0.28 | 0.02 | 96 | 1014.1 |
| 20260510145457 | 53 | 250 | 0.0 | 2.0 | 0.01 | 0.28 | 0.02 | 96 | 1014.1 |
| 20260510144458 | 53 | 256 | 1.0 | 2.0 | 0.01 | 0.28 | 0.02 | 96 | 1013.9 |
| 20260510143957 | 52 | 256 | 2.0 | 2.0 | 0.01 | 0.28 | 0.02 | 96 | 1013.8 |
| 20260510143457 | 52 | 256 | 0.0 | 1.0 | 0.01 | 0.28 | 0.02 | 96 | 1013.8 |
| 20260510142958 | 52 | 256 | 0.0 | 1.0 | 0.01 | 0.28 | 0.02 | 96 | 1013.8 |
| 20260510142457 | 51 | 256 | 0.0 | 2.0 | 0.01 | 0.28 | 0.02 | 96 | 1013.7 |
| 20260510141958 | 51 | 256 | 0.0 | 2.0 | 0.01 | 0.28 | 0.02 | 96 | 1013.8 |
| 20260510141458 | 51 | 296 | 0.0 | 2.0 | 0.01 | 0.28 | 0.02 | 96 | 1013.7 |
| 20260510140958 | 52 | 296 | 2.0 | 2.0 | 0.01 | 0.28 | 0.02 | 96 | 1013.6 |
| 20260510140458 | 52 | 250 | 0.0 | 0.0 | 0.01 | 0.28 | 0.02 | 96 | 1013.7 |
| 20260510140000 | 52 | 69 | 0.0 | 0.0 | 0.00 | 0.27 | 0.01 | 96 | 1013.7 |
| 20260510135458 | 52 | 59 | 0.0 | 0.0 | 0.00 | 0.27 | 0.01 | 96 | 1013.6 |
| 20260510134958 | 52 | 58 | 0.0 | 0.0 | 0.00 | 0.27 | 0.01 | 96 | 1013.6 |
| 20260510134458 | 52 | 58 | 0.0 | 1.0 | 0.00 | 0.27 | 0.01 | 96 | 1013.6 |
| 20260510133959 | 52 | 55 | 0.0 | 3.0 | 0.00 | 0.27 | 0.01 | 96 | 1013.5 |
| 20260510133458 | 52 | 65 | 2.0 | 2.0 | 0.00 | 0.27 | 0.01 | 96 | 1013.5 |
| 20260510132457 | 52 | 257 | 0.0 | 0.0 | 0.00 | 0.27 | 0.01 | 96 | 1013.5 |
| 20260510131958 | 52 | 257 | 0.0 | 0.0 | 0.00 | 0.27 | 0.01 | 96 | 1013.5 |
| 20260510131457 | 52 | 257 | 0.0 | 0.0 | 0.00 | 0.27 | 0.01 | 96 | 1013.5 |
| 20260510130958 | 52 | 257 | 0.0 | 0.0 | 0.00 | 0.27 | 0.01 | 96 | 1013.5 |
| 20260510130458 | 52 | 257 | 0.0 | 0.0 | 0.00 | 0.27 | 0.01 | 96 | 1013.6 |
| 20260510130000 | 52 | 257 | 0.0 | 0.0 | 0.00 | 0.27 | 0.01 | 96 | 1013.4 |
| 20260510125458 | 52 | 257 | 0.0 | 0.0 | 0.00 | 0.27 | 0.01 | 96 | 1013.4 |
| 20260510124958 | 52 | 257 | 0.0 | 0.0 | 0.00 | 0.27 | 0.01 | 96 | 1013.5 |
| 20260510124457 | 52 | 257 | 0.0 | 0.0 | 0.00 | 0.27 | 0.01 | 96 | 1013.3 |
| 20260510123957 | 52 | 257 | 0.0 | 0.0 | 0.00 | 0.27 | 0.01 | 96 | 1013.2 |
| 20260510123457 | 52 | 257 | 0.0 | 0.0 | 0.00 | 0.27 | 0.01 | 96 | 1013.2 |
| 20260510122957 | 52 | 257 | 0.0 | 0.0 | 0.00 | 0.27 | 0.01 | 96 | 1013.2 |
| 20260510122458 | 52 | 257 | 0.0 | 0.0 | 0.00 | 0.27 | 0.01 | 96 | 1013.1 |
| 20260510121958 | 52 | 257 | 0.0 | 0.0 | 0.00 | 0.27 | 0.01 | 96 | 1013.1 |
| 20260510121457 | 51 | 257 | 0.0 | 2.0 | 0.00 | 0.27 | 0.01 | 96 | 1013.0 |
| 20260510120458 | 51 | 257 | 1.0 | 3.0 | 0.00 | 0.27 | 0.01 | 96 | 1013.1 |
| 20260510115957 | 51 | 235 | 0.0 | 0.0 | 0.00 | 0.27 | 0.01 | 96 | 1013.0 |
| 20260510115456 | 51 | 234 | 0.0 | 0.0 | 0.00 | 0.27 | 0.01 | 96 | 1012.7 |
| 20260510114957 | 51 | 234 | 0.0 | 3.0 | 0.00 | 0.27 | 0.01 | 96 | 1012.6 |
| 20260510114456 | 51 | 238 | 0.0 | 3.0 | 0.00 | 0.27 | 0.01 | 96 | 1012.5 |
| 20260510113457 | 51 | 242 | 0.0 | 0.0 | 0.00 | 0.27 | 0.01 | 96 | 1012.3 |
| 20260510112956 | 51 | 242 | 0.0 | 0.0 | 0.00 | 0.27 | 0.01 | 96 | 1012.5 |
| 20260510112456 | 51 | 242 | 0.0 | 0.0 | 0.00 | 0.27 | 0.01 | 96 | 1012.6 |
| 20260510111956 | 51 | 242 | 0.0 | 0.0 | 0.00 | 0.27 | 0.01 | 96 | 1012.6 |
| 20260510111456 | 50 | 242 | 0.0 | 0.0 | 0.00 | 0.27 | 0.01 | 96 | 1012.8 |
| 20260510110957 | 50 | 242 | 0.0 | 0.0 | 0.00 | 0.27 | 0.01 | 96 | 1012.6 |
| 20260510110457 | 50 | 242 | 0.0 | 0.0 | 0.00 | 0.27 | 0.01 | 96 | 1012.6 |
| 20260510105959 | 50 | 242 | 0.0 | 0.0 | 0.00 | 0.27 | 0.01 | 96 | 1012.4 |
| 20260510105457 | 50 | 242 | 0.0 | 0.0 | 0.00 | 0.27 | 0.01 | 96 | 1012.5 |
| 20260510104957 | 50 | 242 | 0.0 | 0.0 | 0.00 | 0.27 | 0.01 | 96 | 1012.5 |
| 20260510104457 | 50 | 242 | 0.0 | 0.0 | 0.00 | 0.27 | 0.01 | 96 | 1012.5 |
| 20260510103958 | 50 | 242 | 0.0 | 0.0 | 0.00 | 0.27 | 0.01 | 96 | 1012.4 |
| 20260510103458 | 50 | 242 | 0.0 | 0.0 | 0.00 | 0.27 | 0.01 | 96 | 1012.3 |
| 20260510102957 | 50 | 242 | 0.0 | 0.0 | 0.00 | 0.27 | 0.01 | 96 | 1012.3 |
| 20260510102458 | 50 | 242 | 0.0 | 0.0 | 0.00 | 0.27 | 0.01 | 96 | 1012.0 |
| 20260510101457 | 49 | 242 | 0.0 | 0.0 | 0.00 | 0.27 | 0.01 | 96 | 1012.4 |
| 20260510100958 | 49 | 242 | 0.0 | 0.0 | 0.00 | 0.27 | 0.01 | 96 | 1012.4 |
| 20260510100457 | 49 | 242 | 0.0 | 0.0 | 0.00 | 0.27 | 0.01 | 96 | 1012.5 |
| 20260510095959 | 49 | 242 | 0.0 | 0.0 | 0.00 | 0.27 | 0.01 | 96 | 1012.3 |
| 20260510095458 | 49 | 242 | 0.0 | 0.0 | 0.00 | 0.27 | 0.01 | 96 | 1012.4 |
| 20260510094957 | 49 | 242 | 0.0 | 0.0 | 0.00 | 0.27 | 0.01 | 96 | 1012.6 |
| 20260510093958 | 50 | 242 | 0.0 | 0.0 | 0.00 | 0.27 | 0.01 | 96 | 1012.6 |
| 20260510093456 | 50 | 242 | 0.0 | 0.0 | 0.00 | 0.27 | 0.01 | 96 | 1012.7 |
| 20260510092958 | 50 | 242 | 0.0 | 0.0 | 0.00 | 0.27 | 0.01 | 96 | 1012.7 |
| 20260510092458 | 50 | 242 | 0.0 | 0.0 | 0.00 | 0.27 | 0.01 | 96 | 1012.6 |
| 20260510091957 | 50 | 242 | 0.0 | 0.0 | 0.00 | 0.27 | 0.01 | 96 | 1012.7 |
| 20260510091457 | 50 | 242 | 0.0 | 0.0 | 0.00 | 0.27 | 0.01 | 96 | 1012.5 |
| 20260510090958 | 50 | 242 | 0.0 | 0.0 | 0.00 | 0.27 | 0.01 | 96 | 1012.5 |
| 20260510090458 | 50 | 242 | 0.0 | 0.0 | 0.00 | 0.27 | 0.01 | 96 | 1012.6 |
| 20260510085956 | 50 | 242 | 0.0 | 0.0 | 0.00 | 0.27 | 0.01 | 96 | 1012.7 |
| 20260510085456 | 50 | 242 | 0.0 | 0.0 | 0.00 | 0.27 | 0.01 | 96 | 1012.8 |
| 20260510084456 | 50 | 242 | 0.0 | 0.0 | 0.00 | 0.27 | 0.01 | 96 | 1012.7 |
| 20260510083956 | 50 | 242 | 0.0 | 0.0 | 0.00 | 0.27 | 0.01 | 96 | 1012.7 |
| 20260510083457 | 50 | 242 | 0.0 | 0.0 | 0.00 | 0.27 | 0.01 | 96 | 1012.7 |
| 20260510082956 | 50 | 242 | 0.0 | 0.0 | 0.00 | 0.27 | 0.01 | 96 | 1012.5 |
| 20260510081957 | 50 | 242 | 0.0 | 0.0 | 0.00 | 0.27 | 0.01 | 96 | 1012.3 |
| 20260510081457 | 50 | 242 | 0.0 | 0.0 | 0.00 | 0.27 | 0.01 | 96 | 1012.1 |
| 20260510080956 | 50 | 242 | 0.0 | 0.0 | 0.00 | 0.27 | 0.01 | 96 | 1011.9 |
| 20260510080456 | 50 | 242 | 0.0 | 0.0 | 0.00 | 0.27 | 0.01 | 96 | 1011.8 |
| 20260510075457 | 50 | 242 | 0.0 | 0.0 | 0.00 | 0.27 | 0.01 | 96 | 1011.6 |
| 20260510074958 | 50 | 242 | 0.0 | 0.0 | 0.00 | 0.27 | 0.01 | 96 | 1011.8 |
| 20260510074458 | 50 | 242 | 0.0 | 0.0 | 0.00 | 0.27 | 0.01 | 96 | 1011.8 |
| 20260510073457 | 50 | 242 | 0.0 | 0.0 | 0.00 | 0.27 | 0.01 | 96 | 1011.8 |
| 20260510072958 | 50 | 242 | 0.0 | 0.0 | 0.00 | 0.27 | 0.01 | 96 | 1011.9 |
| 20260510072457 | 50 | 242 | 0.0 | 0.0 | 0.01 | 0.27 | 0.01 | 96 | 1012.0 |
| 20260510071958 | 50 | 242 | 0.0 | 0.0 | 0.01 | 0.27 | 0.01 | 96 | 1012.0 |
| 20260510071457 | 50 | 242 | 0.0 | 0.0 | 0.01 | 0.27 | 0.01 | 96 | 1012.0 |
| 20260510070957 | 50 | 242 | 0.0 | 0.0 | 0.01 | 0.27 | 0.01 | 96 | 1012.0 |
| 20260510065956 | 50 | 242 | 0.0 | 0.0 | 0.01 | 0.27 | 0.01 | 96 | 1012.0 |
| 20260510065456 | 50 | 242 | 0.0 | 0.0 | 0.01 | 0.27 | 0.01 | 96 | 1011.9 |
| 20260510064456 | 50 | 242 | 0.0 | 0.0 | 0.01 | 0.27 | 0.01 | 96 | 1011.9 |
| 20260510063957 | 50 | 242 | 0.0 | 0.0 | 0.01 | 0.27 | 0.01 | 96 | 1012.0 |
| 20260510062955 | 50 | 60 | 0.0 | 0.0 | 0.01 | 0.27 | 0.01 | 96 | 1011.8 |
| 20260510061956 | 50 | 60 | 0.0 | 0.0 | 0.00 | 0.26 | 0.00 | 96 | 1011.7 |
| 20260510061456 | 50 | 60 | 0.0 | 0.0 | 0.00 | 0.26 | 0.00 | 96 | 1011.6 |
| 20260510060956 | 50 | 60 | 0.0 | 0.0 | 0.00 | 0.26 | 0.00 | 96 | 1011.5 |
| 20260510060456 | 50 | 60 | 0.0 | 0.0 | 0.00 | 0.26 | 0.00 | 96 | 1011.5 |
| 20260510055456 | 50 | 60 | 0.0 | 0.0 | 0.00 | 0.26 | 0.00 | 96 | 1011.6 |
| 20260510054956 | 51 | 60 | 0.0 | 0.0 | 0.00 | 0.26 | 0.00 | 96 | 1011.6 |
| 20260510054457 | 51 | 61 | 0.0 | 0.0 | 0.00 | 0.26 | 0.00 | 96 | 1011.7 |
| 20260510052957 | 51 | 61 | 0.0 | 0.0 | 0.00 | 0.26 | 0.00 | 96 | 1011.8 |
| 20260510052456 | 51 | 61 | 0.0 | 0.0 | 0.00 | 0.26 | 0.00 | 96 | 1011.9 |
| 20260510051456 | 51 | 61 | 0.0 | 0.0 | 0.00 | 0.26 | 0.00 | 96 | 1011.8 |
| 20260510050956 | 51 | 61 | 0.0 | 0.0 | 0.00 | 0.26 | 0.00 | 95 | 1011.9 |
| 20260510050457 | 51 | 61 | 0.0 | 0.0 | 0.00 | 0.26 | 0.00 | 95 | 1011.9 |
| 20260510045959 | 51 | 61 | 0.0 | 0.0 | 0.00 | 0.26 | 0.00 | 95 | 1012.0 |
| 20260510045456 | 51 | 61 | 0.0 | 0.0 | 0.00 | 0.26 | 0.00 | 95 | 1012.0 |
| 20260510044957 | 51 | 61 | 0.0 | 0.0 | 0.00 | 0.26 | 0.00 | 95 | 1012.0 |
| 20260510043957 | 51 | 61 | 0.0 | 0.0 | 0.00 | 0.26 | 0.00 | 95 | 1012.0 |
| 20260510043457 | 51 | 61 | 0.0 | 0.0 | 0.00 | 0.26 | 0.00 | 95 | 1011.8 |
| 20260510042957 | 51 | 61 | 0.0 | 0.0 | 0.00 | 0.26 | 0.00 | 95 | 1011.7 |
| 20260510042457 | 51 | 61 | 0.0 | 0.0 | 0.00 | 0.26 | 0.00 | 95 | 1011.7 |
| 20260510041958 | 51 | 61 | 0.0 | 0.0 | 0.00 | 0.26 | 0.00 | 95 | 1011.7 |
| 20260510041457 | 51 | 61 | 0.0 | 0.0 | 0.00 | 0.26 | 0.00 | 96 | 1011.6 |
| 20260510040957 | 51 | 61 | 0.0 | 0.0 | 0.00 | 0.26 | 0.00 | 96 | 1011.6 |
| 20260510040458 | 51 | 61 | 0.0 | 0.0 | 0.00 | 0.26 | 0.00 | 96 | 1011.6 |
| 20260510035459 | 51 | 61 | 0.0 | 0.0 | 0.01 | 0.26 | 0.26 | 95 | 1011.5 |
| 20260510034459 | 51 | 61 | 0.0 | 0.0 | 0.01 | 0.26 | 0.26 | 95 | 1011.4 |
| 20260510033959 | 51 | 61 | 0.0 | 0.0 | 0.01 | 0.26 | 0.26 | 95 | 1011.6 |
| 20260510033459 | 51 | 61 | 0.0 | 0.0 | 0.01 | 0.26 | 0.26 | 95 | 1011.5 |
| 20260510033001 | 51 | 61 | 0.0 | 0.0 | 0.01 | 0.26 | 0.26 | 95 | 1011.5 |
| 20260510032459 | 51 | 61 | 0.0 | 0.0 | 0.01 | 0.26 | 0.26 | 95 | 1011.5 |
| 20260510030959 | 51 | 61 | 0.0 | 0.0 | 0.01 | 0.26 | 0.26 | 95 | 1011.8 |
| 20260510025459 | 51 | 61 | 0.0 | 0.0 | 0.00 | 0.25 | 0.25 | 95 | 1011.7 |
| 20260510024959 | 51 | 61 | 0.0 | 0.0 | 0.00 | 0.25 | 0.25 | 95 | 1011.8 |
| 20260510024500 | 51 | 61 | 0.0 | 0.0 | 0.00 | 0.25 | 0.25 | 95 | 1011.7 |
| 20260510023959 | 51 | 61 | 0.0 | 0.0 | 0.00 | 0.25 | 0.25 | 95 | 1011.7 |
| 20260510023459 | 51 | 61 | 0.0 | 1.0 | 0.00 | 0.25 | 0.25 | 95 | 1011.8 |
| 20260510022959 | 51 | 61 | 0.0 | 2.0 | 0.00 | 0.25 | 0.25 | 95 | 1011.8 |
| 20260510022459 | 51 | 61 | 0.0 | 2.0 | 0.00 | 0.25 | 0.25 | 95 | 1011.8 |
| 20260510021500 | 51 | 211 | 0.0 | 1.0 | 0.01 | 0.25 | 0.25 | 95 | 1011.6 |
| 20260510021000 | 51 | 211 | 0.0 | 1.0 | 0.01 | 0.25 | 0.25 | 95 | 1011.6 |
| 20260510020000 | 51 | 211 | 0.0 | 1.0 | 0.01 | 0.25 | 0.25 | 95 | 1011.7 |
| 20260510015459 | 51 | 211 | 0.0 | 1.0 | 0.01 | 0.25 | 0.25 | 95 | 1011.7 |
| 20260510014958 | 51 | 211 | 0.0 | 1.0 | 0.01 | 0.25 | 0.25 | 95 | 1011.7 |
| 20260510014457 | 51 | 212 | 0.0 | 2.0 | 0.01 | 0.25 | 0.25 | 95 | 1011.7 |
| 20260510013958 | 51 | 212 | 0.0 | 2.0 | 0.01 | 0.25 | 0.25 | 95 | 1011.7 |
| 20260510013458 | 51 | 198 | 0.0 | 0.0 | 0.02 | 0.25 | 0.25 | 95 | 1011.7 |
| 20260510012959 | 52 | 198 | 0.0 | 0.0 | 0.02 | 0.25 | 0.25 | 95 | 1011.6 |
| 20260510012458 | 52 | 198 | 0.0 | 0.0 | 0.02 | 0.25 | 0.25 | 95 | 1011.5 |
| 20260510011958 | 52 | 198 | 0.0 | 0.0 | 0.01 | 0.24 | 0.24 | 95 | 1011.5 |
| 20260510011458 | 52 | 198 | 0.0 | 2.0 | 0.01 | 0.24 | 0.24 | 95 | 1011.3 |
| 20260510010959 | 52 | 67 | 1.0 | 2.0 | 0.02 | 0.24 | 0.24 | 95 | 1011.4 |
| 20260510010459 | 52 | 71 | 0.0 | 1.0 | 0.02 | 0.24 | 0.24 | 95 | 1011.4 |
| 20260510005500 | 52 | 71 | 0.0 | 1.0 | 0.02 | 0.24 | 0.24 | 95 | 1011.4 |
| 20260510004459 | 52 | 70 | 0.0 | 2.0 | 0.03 | 0.24 | 0.24 | 95 | 1011.3 |
| 20260510003459 | 52 | 70 | 0.0 | 1.0 | 0.02 | 0.23 | 0.23 | 95 | 1011.3 |
| 20260510002459 | 52 | 70 | 0.0 | 0.0 | 0.03 | 0.23 | 0.23 | 95 | 1011.3 |
| 20260510002000 | 52 | 70 | 0.0 | 1.0 | 0.03 | 0.23 | 0.23 | 95 | 1011.1 |
| 20260510001459 | 52 | 70 | 0.0 | 1.0 | 0.04 | 0.23 | 0.23 | 95 | 1011.0 |
| 20260510001000 | 52 | 70 | 0.0 | 1.0 | 0.03 | 0.22 | 0.22 | 95 | 1010.9 |
| 20260510000500 | 52 | 70 | 0.0 | 1.0 | 0.04 | 0.22 | 0.22 | 95 | 1011.0 |
| 20260509235958 | 52 | 70 | 0.0 | 4.0 | 0.04 | 0.22 | 0.22 | 95 | 1011.0 |
| 20260509235458 | 52 | 70 | 0.0 | 4.0 | 0.05 | 0.22 | 0.22 | 95 | 1011.0 |
| 20260509234959 | 52 | 348 | 0.0 | 2.0 | 0.06 | 0.22 | 0.22 | 95 | 1011.0 |
| 20260509234458 | 52 | 5 | 0.0 | 1.0 | 0.05 | 0.21 | 0.21 | 95 | 1011.0 |
| 20260509233958 | 52 | 5 | 0.0 | 2.0 | 0.06 | 0.21 | 0.21 | 95 | 1011.0 |
| 20260509233458 | 52 | 360 | 1.0 | 6.0 | 0.06 | 0.21 | 0.21 | 95 | 1010.9 |
| 20260509232958 | 52 | 20 | 3.0 | 7.0 | 0.06 | 0.20 | 0.20 | 95 | 1010.8 |
| 20260509232458 | 52 | 349 | 0.0 | 7.0 | 0.06 | 0.20 | 0.20 | 94 | 1010.8 |
| 20260509231458 | 53 | 38 | 1.0 | 3.0 | 0.07 | 0.19 | 0.19 | 95 | 1011.0 |
| 20260509230457 | 53 | 240 | 0.0 | 1.0 | 0.07 | 0.18 | 0.18 | 95 | 1011.6 |
| 20260509225959 | 53 | 240 | 0.0 | 1.0 | 0.07 | 0.18 | 0.18 | 95 | 1011.7 |
| 20260509225458 | 53 | 240 | 0.0 | 3.0 | 0.07 | 0.17 | 0.17 | 94 | 1011.7 |
| 20260509224458 | 53 | 241 | 0.0 | 0.0 | 0.07 | 0.16 | 0.16 | 95 | 1011.9 |
| 20260509223958 | 53 | 241 | 0.0 | 0.0 | 0.06 | 0.15 | 0.15 | 95 | 1012.0 |
| 20260509223457 | 53 | 241 | 0.0 | 0.0 | 0.06 | 0.15 | 0.15 | 95 | 1012.1 |
| 20260509222959 | 53 | 241 | 0.0 | 0.0 | 0.05 | 0.14 | 0.14 | 95 | 1012.1 |
| 20260509221957 | 54 | 241 | 0.0 | 0.0 | 0.04 | 0.13 | 0.13 | 94 | 1011.8 |
| 20260509221458 | 53 | 241 | 0.0 | 0.0 | 0.03 | 0.12 | 0.12 | 94 | 1011.8 |
| 20260509220958 | 53 | 241 | 0.0 | 0.0 | 0.03 | 0.12 | 0.12 | 94 | 1012.0 |
| 20260509215958 | 53 | 241 | 0.0 | 3.0 | 0.02 | 0.11 | 0.11 | 94 | 1012.1 |
| 20260509215458 | 53 | 241 | 2.0 | 3.0 | 0.01 | 0.10 | 0.10 | 94 | 1012.1 |
| 20260509214958 | 54 | 241 | 2.0 | 3.0 | 0.01 | 0.10 | 0.10 | 94 | 1012.1 |
| 20260509214458 | 54 | 241 | 2.0 | 4.0 | 0.00 | 0.09 | 0.09 | 94 | 1012.1 |
| 20260509213958 | 54 | 240 | 3.0 | 4.0 | 0.00 | 0.09 | 0.09 | 94 | 1012.1 |
| 20260509213458 | 54 | 239 | 2.0 | 4.0 | 0.00 | 0.09 | 0.09 | 94 | 1012.1 |
| 20260509212958 | 54 | 241 | 3.0 | 4.0 | 0.01 | 0.09 | 0.09 | 94 | 1012.1 |
| 20260509212458 | 54 | 245 | 2.0 | 4.0 | 0.01 | 0.09 | 0.09 | 94 | 1012.1 |
| 20260509211458 | 54 | 250 | 2.0 | 4.0 | 0.01 | 0.09 | 0.09 | 94 | 1012.0 |
| 20260509210958 | 54 | 249 | 2.0 | 4.0 | 0.01 | 0.09 | 0.09 | 94 | 1012.0 |
| 20260509210458 | 54 | 244 | 2.0 | 7.0 | 0.01 | 0.09 | 0.09 | 94 | 1011.9 |
| 20260509210000 | 54 | 244 | 4.0 | 7.0 | 0.01 | 0.09 | 0.09 | 94 | 1012.0 |
| 20260509205458 | 54 | 252 | 5.0 | 5.0 | 0.01 | 0.09 | 0.09 | 94 | 1012.0 |
| 20260509203958 | 54 | 84 | 0.0 | 0.0 | 0.02 | 0.09 | 0.09 | 94 | 1011.4 |
| 20260509203458 | 54 | 84 | 0.0 | 3.0 | 0.02 | 0.09 | 0.09 | 94 | 1011.3 |
| 20260509202958 | 54 | 84 | 0.0 | 4.0 | 0.01 | 0.08 | 0.08 | 94 | 1011.1 |
| 20260509202457 | 54 | 254 | 1.0 | 4.0 | 0.01 | 0.08 | 0.08 | 94 | 1011.9 |
| 20260509201958 | 54 | 255 | 3.0 | 4.0 | 0.01 | 0.08 | 0.08 | 94 | 1011.9 |
| 20260509201458 | 54 | 236 | 2.0 | 6.0 | 0.01 | 0.08 | 0.08 | 93 | 1011.9 |
| 20260509200959 | 54 | 227 | 2.0 | 6.0 | 0.02 | 0.08 | 0.08 | 93 | 1012.2 |
| 20260509200457 | 54 | 253 | 2.0 | 5.0 | 0.02 | 0.08 | 0.08 | 93 | 1012.1 |
| 20260509200001 | 54 | 234 | 3.0 | 5.0 | 0.02 | 0.08 | 0.08 | 93 | 1012.1 |
| 20260509195459 | 54 | 242 | 2.0 | 5.0 | 0.03 | 0.08 | 0.08 | 93 | 1012.1 |
| 20260509194459 | 54 | 251 | 3.0 | 9.0 | 0.03 | 0.07 | 0.07 | 93 | 1012.1 |
| 20260509193959 | 54 | 244 | 5.0 | 9.0 | 0.03 | 0.07 | 0.07 | 93 | 1012.1 |
| 20260509193459 | 54 | 234 | 4.0 | 7.0 | 0.04 | 0.07 | 0.07 | 93 | 1012.1 |
| 20260509192959 | 55 | 229 | 3.0 | 5.0 | 0.05 | 0.07 | 0.07 | 93 | 1012.1 |
| 20260509192459 | 55 | 240 | 3.0 | 5.0 | 0.06 | 0.07 | 0.07 | 93 | 1011.9 |
| 20260509191959 | 55 | 231 | 5.0 | 5.0 | 0.07 | 0.07 | 0.07 | 93 | 1011.9 |
| 20260509191459 | 55 | 227 | 3.0 | 4.0 | 0.07 | 0.07 | 0.07 | 93 | 1011.6 |
| 20260509190459 | 55 | 195 | 2.0 | 2.0 | 0.06 | 0.06 | 0.06 | 92 | 1011.6 |
| 20260509185958 | 55 | 156 | 0.0 | 0.0 | 0.06 | 0.06 | 0.06 | 92 | 1011.6 |
| 20260509184958 | 55 | 225 | 0.0 | 3.0 | 0.05 | 0.05 | 0.05 | 91 | 1011.6 |
| 20260509184458 | 55 | 225 | 0.0 | 3.0 | 0.04 | 0.04 | 0.04 | 91 | 1011.7 |
| 20260509183958 | 55 | 225 | 2.0 | 3.0 | 0.04 | 0.04 | 0.04 | 90 | 1011.8 |